Effective Sunday, March 17, 2024, the National Weather Service National Data Buoy Center will discontinue its Dial-A-Buoy Interactive Voice Response system. For more information, see Service Change Notice 24-06 (PDF).

Station PCNT2 - 8773701 - Port O'Connor, Matagorda Bay, TX Image indicating link to RSS feed of recent meteorological observations for station PCNT2


Conditions at PCNT2 as of
(7:30 am CST)
1330 GMT on 03/04/2024:
     

Click on the graph icon in the table below to see a time series plot of the last five days of that observation.

5-day plot - Wind Direction Wind Direction (WDIR):ESE ( 110 deg true )
5-day plot - Wind Speed Wind Speed (WSPD): 8.0 kts
5-day plot - Wind Gust Wind Gust (GST): 8.9 kts
5-day plot - Atmospheric Pressure Atmospheric Pressure (PRES):29.86 in
5-day plot - Air Temperature Air Temperature (ATMP): 65.5 °F
5-day plot - Water Temperature Water Temperature (WTMP): 63.1 °F
5-day plot - Wind Speed at 10 Meters Wind Speed at 10 meters (WSPD10M): 7.8 kts
5-day plot - Wind Speed at 20 Meters Wind Speed at 20 meters (WSPD20M): 9.7 kts
5-day plot -  Wind Speed, Wind Gust and Atmospheric Pressure Combined plot of Wind Speed, Gust, and Air Pressure
Previous observations
TIME
(CST)
5-day plot - Wind Direction
WDIR
 
5-day plot - Wind Speed
WSPD
kts
5-day plot - Wind Gust
GST
kts
5-day plot - Wave Height
WVHT
ft
5-day plot - Dominant Wave Period
DPD
sec
5-day plot - Average Wave Period
APD
sec
5-day plot - Mean Wave Direction
MWD
 
5-day plot - Atmospheric Pressure
PRES
in
5-day plot - Pressure Tendency
PTDY
in
5-day plot - Air Temperature
ATMP
°F
5-day plot - Water Temperature
WTMP
°F
5-day plot - Dew Point
DEWP
°F
5-day plot - Salinity
SAL
psu
5-day plot - Visibility
VIS
nmi
5-day plot - Tide (above MLLW)
TIDE
ft
2024-03-04 07:24 amESE 8.0 8.9----29.85- 65.5 63.1----
2024-03-04 07:18 amESE 7.0 8.0----29.85- 65.3 63.1----
2024-03-04 07:12 amESE 8.0 8.9----29.85- 65.1 63.1----
2024-03-04 07:06 amESE 8.9 12.0----29.85- 64.9 63.0----
2024-03-04 07:00 amESE 9.9 11.1----29.85+0.01 65.3 63.0----
2024-03-04 06:54 amESE 9.9 11.1----29.85- 64.8 63.0----
2024-03-04 06:48 amESE 8.9 9.9----29.85- 64.4 63.0----
2024-03-04 06:42 amESE 8.9 11.1----29.85- 64.6 63.0----
2024-03-04 06:36 am E 7.0 8.0----29.85- 64.6 63.0----
2024-03-04 06:30 am E 8.0 8.9----29.85- 64.6 63.0----
2024-03-04 06:24 amESE 8.0 8.9----29.85- 64.9 63.0----
2024-03-04 06:18 amESE 8.0 8.9----29.85- 64.9 63.0----
2024-03-04 06:12 amESE 8.0 9.9----29.85- 65.1 63.0----
2024-03-04 06:06 am E 7.0 8.0----29.85- 64.8 63.0----
2024-03-04 06:00 amESE 6.0 8.0----29.85+0.01 64.9 63.0----
2024-03-04 05:54 am E 7.0 8.0----29.84- 64.9 63.0----
2024-03-04 05:48 am E 7.0 7.0----29.84- 65.3 63.0----
2024-03-04 05:42 am E 7.0 8.0----29.84- 65.1 63.1----
2024-03-04 05:36 am E 6.0 7.0----29.83- 64.9 63.1----
2024-03-04 05:30 am E 5.1 6.0----29.83- 64.6 63.1----
2024-03-04 05:24 am E 5.1 7.0----29.83- 65.1 63.3----
2024-03-04 05:18 amENE 5.1 6.0----29.83- 64.4 63.3----
2024-03-04 05:12 amENE 5.1 6.0----29.82- 64.4 63.3----
2024-03-04 05:06 amENE 6.0 8.0----29.82- 64.6 63.3----
2024-03-04 05:00 am E 8.0 8.9----29.82-0.03 64.6 63.3----
2024-03-04 04:54 am E 8.9 8.9----29.82- 65.1 63.3----
2024-03-04 04:48 am E 8.9 8.9----29.82- 64.8 63.3----
2024-03-04 04:42 am E 8.0 8.9----29.82- 64.4 63.3----
2024-03-04 04:36 am E 8.0 8.9----29.82- 64.4 63.3----
2024-03-04 04:30 am E 8.9 8.9----29.83- 64.4 63.5----
2024-03-04 04:24 am E 8.0 8.0----29.83- 64.4 63.5----
2024-03-04 04:18 am E 8.0 8.0----29.83- 64.4 63.5----
2024-03-04 04:12 am E 7.0 8.0----29.83- 64.4 63.5----
2024-03-04 04:06 am E 7.0 7.0----29.83- 64.6 63.7----
2024-03-04 04:00 am E 6.0 7.0----29.83-0.03 64.8 63.7----
2024-03-04 03:54 am E 8.0 8.0----29.83- 64.6 63.7----
2024-03-04 03:48 am E 7.0 8.0----29.83- 64.2 63.7----
2024-03-04 03:42 am E 6.0 8.0----29.83- 64.2 63.7----
2024-03-04 03:36 am E 7.0 8.9----29.83- 64.6 63.7----
2024-03-04 03:30 am E 8.0 8.0----29.83- 64.4 63.7----
2024-03-04 03:24 am E 8.0 8.0----29.84- 64.6 63.7----
2024-03-04 03:18 am E 8.0 8.9----29.84- 64.2 63.7----
2024-03-04 03:12 am E 8.0 8.0----29.83- 64.4 63.7----
2024-03-04 03:06 am E 7.0 8.0----29.84- 64.2 63.7----
2024-03-04 03:00 am E 8.0 8.9----29.83-0.03 64.4 63.7----
2024-03-04 02:54 am E 8.9 8.9----29.83- 64.2 63.7----
2024-03-04 02:48 am E 8.0 8.9----29.84- 64.0 63.7----
2024-03-04 02:42 am E 7.0 8.0----29.84- 64.0 63.9----
2024-03-04 02:36 amENE 7.0 8.0----29.84- 63.9 63.9----
2024-03-04 02:30 amENE 7.0 7.0----29.85- 63.9 63.9----
2024-03-04 02:24 amENE 6.0 7.0----29.85- 63.7 63.9----
2024-03-04 02:18 amENE 7.0 8.0----29.85- 63.5 63.9----
2024-03-04 02:12 amENE 7.0 8.0----29.85- 63.7 63.9----
2024-03-04 02:06 amENE 7.0 8.0----29.85- 63.9 63.9----
2024-03-04 02:00 am E 7.0 8.0----29.85-0.01 63.9 63.9----
2024-03-04 01:54 am E 7.0 8.0----29.85- 63.7 63.9----
2024-03-04 01:48 am E 7.0 8.0----29.85- 63.5 63.9----
2024-03-04 01:42 am E 8.0 8.9----29.85- 63.5 63.9----
2024-03-04 01:36 am E 8.0 8.0----29.86- 63.3 63.7----
2024-03-04 01:30 am E 7.0 8.0----29.86- 63.3 63.7----
2024-03-04 01:24 amENE 7.0 8.0----29.86- 63.1 63.7----
2024-03-04 01:18 amENE 8.0 8.9----29.86- 63.3 63.7----
2024-03-04 01:12 amENE 7.0 8.0----29.86- 63.3 63.7----
2024-03-04 01:06 amENE 8.0 8.9----29.86- 63.1 63.7----
2024-03-04 01:00 amENE 8.0 8.9----29.86-0.01 63.1 63.7----
2024-03-04 12:54 am E 8.0 8.9----29.86- 63.0 63.7----
2024-03-04 12:48 am E 7.0 8.0----29.86- 62.8 63.7----
2024-03-04 12:42 am E 7.0 8.0----29.86- 62.8 63.7----
2024-03-04 12:36 am E 7.0 8.0----29.86- 63.0 63.7----
2024-03-04 12:30 am E 7.0 8.0----29.86- 63.0 63.7----
2024-03-04 12:24 am E 7.0 8.9----29.86- 62.8 63.7----
2024-03-04 12:18 am E 8.0 8.9----29.86- 63.0 63.7----
2024-03-04 12:12 am E 8.0 8.9----29.86- 63.0 63.7----
2024-03-04 12:06 am E 8.0 9.9----29.86- 63.1 63.7----
2024-03-04 12:00 am E 8.9 9.9----29.86-0.01 63.0 63.7----
2024-03-03 11:54 pm E 8.0 9.9----29.86- 63.0 63.7----
2024-03-03 11:48 pm E 8.9 8.9----29.86- 63.0 63.7----
2024-03-03 11:42 pm E 8.0 9.9----29.86- 63.0 63.7----
2024-03-03 11:36 pm E 8.9 9.9----29.86- 63.0 63.7----
2024-03-03 11:30 pm E 8.9 9.9----29.86- 63.0 63.7----
2024-03-03 11:24 pm E 8.9 11.1----29.86- 63.0 63.5----
2024-03-03 11:18 pm E 8.9 9.9----29.86- 63.0 63.7----
2024-03-03 11:12 pm E 9.9 11.1----29.86- 63.1 63.5----
2024-03-03 11:06 pm E 9.9 11.1----29.86- 63.1 63.5----
2024-03-03 11:00 pm E 9.9 11.1----29.86-0.01 63.3 63.5----
2024-03-03 10:54 pm E 9.9 12.0----29.86- 63.3 63.5----
2024-03-03 10:48 pm E 9.9 11.1----29.86- 63.5 63.5----
2024-03-03 10:42 pm E 9.9 12.0----29.87- 63.5 63.5----
2024-03-03 10:36 pm E 9.9 12.0----29.87- 63.5 63.5----
2024-03-03 10:30 pm E 9.9 12.0----29.87- 63.7 63.5----
2024-03-03 10:24 pm E 9.9 11.1----29.87- 63.5 63.5----
2024-03-03 10:18 pm E 9.9 12.0----29.87- 63.7 63.5----
2024-03-03 10:12 pmENE 9.9 12.0----29.87- 63.7 63.5----
2024-03-03 10:06 pmENE 9.9 11.1----29.87- 63.5 63.5----
2024-03-03 10:00 pmENE 8.9 9.9----29.87+0.01 63.5 63.5----
2024-03-03 09:54 pmENE 9.9 11.1----29.87- 63.7 63.5----
2024-03-03 09:48 pmENE 9.9 11.1----29.87- 63.9 63.3----
2024-03-03 09:42 pmENE 9.9 12.0----29.87- 63.9 63.5----
2024-03-03 09:36 pmENE 9.9 11.1----29.87- 63.7 63.5----
2024-03-03 09:30 pmENE 9.9 11.1----29.87- 63.5 63.3----
2024-03-03 09:24 pmENE 9.9 12.0----29.87- 63.5 63.3----
2024-03-03 09:18 pmENE 9.9 12.0----29.87- 63.5 63.3----
2024-03-03 09:12 pmENE 9.9 12.0----29.87- 63.5 63.3----
2024-03-03 09:06 pmENE 9.9 11.1----29.87- 63.5 63.1----
2024-03-03 09:00 pmENE 9.9 11.1----29.87+0.02 63.5 63.1----
2024-03-03 08:54 pmENE 8.9 9.9----29.87- 63.1 63.0----
2024-03-03 08:48 pmENE 9.9 11.1----29.87- 63.1 63.0----
2024-03-03 08:42 pmENE 9.9 11.1----29.87- 63.5 63.0----
2024-03-03 08:36 pmENE 9.9 11.1----29.88- 63.7 63.0----
2024-03-03 08:30 pmENE 8.9 11.1----29.88- 63.7 63.0----
2024-03-03 08:24 pmENE 8.9 11.1----29.88- 63.5 63.0----
2024-03-03 08:18 pmENE 9.9 11.1----29.88- 63.5 63.0----
2024-03-03 08:12 pmENE 9.9 11.1----29.87- 63.3 63.0----
2024-03-03 08:06 pmENE 9.9 12.0----29.87- 63.3 63.0----
2024-03-03 08:00 pmENE 9.9 12.0----29.87+0.02 63.3 63.0----
2024-03-03 07:54 pmENE 11.1 12.0----29.87- 63.5 63.0----
2024-03-03 07:48 pmENE 11.1 12.0----29.87- 63.3 63.0----
2024-03-03 07:42 pmENE 11.1 12.0----29.87- 63.1 63.0----
2024-03-03 07:36 pmENE 9.9 11.1----29.87- 62.8 62.8----
2024-03-03 07:30 pmENE 9.9 11.1----29.87- 62.8 62.8----
2024-03-03 07:24 pmENE 8.9 9.9----29.86- 62.6 62.8----
2024-03-03 07:18 pmENE 8.9 8.9----29.87- 62.6 62.8----
2024-03-03 07:12 pmENE 7.0 8.0----29.86- 62.6 62.8----
2024-03-03 07:06 pmENE 8.0 8.9----29.86- 62.6 62.6----
2024-03-03 07:00 pm-------29.86+0.00 63.0 62.6----
2024-03-03 06:54 pm-------29.86- 63.0 62.6----
2024-03-03 06:48 pmENE 8.0 8.9----29.86- 63.1 62.6----
2024-03-03 06:42 pmENE 7.0 8.0----29.86- 63.1 62.6----
2024-03-03 06:36 pmENE 8.0 8.9----29.85- 63.3 62.6----
2024-03-03 06:30 pmENE 8.0 8.9----29.85-- 62.8----
2024-03-03 06:24 pmENE 8.9 9.9----29.85-- 62.8----
2024-03-03 06:18 pmENE 8.9 9.9----29.85- 63.7 62.8----
2024-03-03 06:12 pmENE 9.9 11.1----29.85- 64.2 62.8----
2024-03-03 06:06 pmENE 9.9 11.1----29.85- 64.4 62.8----
2024-03-03 06:00 pmENE 9.9 9.9----29.85-0.02 64.2 62.8----
2024-03-03 05:54 pmENE 8.9 9.9----29.85- 64.2 62.8----
2024-03-03 05:48 pmENE 8.9 8.9----29.85- 64.2 62.8----
2024-03-03 05:42 pmENE 8.9 9.9----29.85- 64.2 62.8----
2024-03-03 05:36 pmENE 8.9 9.9----29.85- 64.4 63.0----
2024-03-03 05:30 pmENE 8.9 8.9----29.85- 64.4 63.0----
2024-03-03 05:24 pmENE 8.0 8.0----29.85- 64.4 63.0----
2024-03-03 05:18 pmENE 8.0 8.0----29.85- 64.2 63.0----
2024-03-03 05:12 pmENE 8.0 9.9----29.85- 64.2 63.0----
2024-03-03 05:06 pmENE 8.9 8.9----29.85- 64.4 63.0----
2024-03-03 05:00 pmENE 8.0 8.9----29.85-0.02 64.8 63.0----
2024-03-03 04:54 pmENE 8.0 8.0----29.85- 64.4 63.0----
2024-03-03 04:48 pmENE 7.0 8.0----29.85- 64.4 63.0----
2024-03-03 04:42 pmENE 8.0 8.9----29.86- 64.6 63.0----
2024-03-03 04:36 pmENE 8.0 8.9----29.85- 64.6 63.1----
2024-03-03 04:30 pmENE 7.0 8.0----29.86- 64.8 63.1----
2024-03-03 04:24 pmENE 7.0 8.0----29.86- 64.8 63.1----
2024-03-03 04:18 pmENE 8.0 8.9----29.85- 64.8 63.1----
2024-03-03 04:12 pmENE 7.0 8.0----29.85- 64.8 63.1----
2024-03-03 04:06 pmENE 6.0 7.0----29.86- 64.8 63.1----
2024-03-03 04:00 pmENE 5.1 7.0----29.86-0.04 64.6 63.1----
2024-03-03 03:54 pmENE 7.0 8.0----29.86- 64.8 63.1----
2024-03-03 03:48 pmENE 6.0 7.0----29.86- 64.8 63.1----
2024-03-03 03:42 pmENE 6.0 6.0----29.86- 64.8 63.1----
2024-03-03 03:36 pmENE 5.1 5.1----29.87- 64.8 63.1----
2024-03-03 03:30 pmENE 5.1 6.0----29.86-- 63.1----
2024-03-03 03:24 pmENE 6.0 7.0----29.86-- 63.1----
2024-03-03 03:18 pmENE 6.0 6.0----29.87- 64.6 63.1----
2024-03-03 03:12 pmENE 5.1 7.0----29.87- 64.4 63.1----
2024-03-03 03:06 pmENE 7.0 7.0----29.87- 64.2 63.1----
2024-03-03 03:00 pmENE 5.1 6.0----29.87-0.06- 63.1----
2024-03-03 02:54 pmENE 6.0 6.0----29.87-- 63.1----
2024-03-03 02:48 pmENE 6.0 7.0----29.87- 64.6 63.1----
2024-03-03 02:42 pmENE 6.0 7.0----29.88- 64.8 63.1----
2024-03-03 02:36 pmENE 4.1 5.1----29.88- 65.1 63.1----
2024-03-03 02:30 pm--------- 65.3 63.1----
2024-03-03 02:24 pm--------- 65.3 63.1----
2024-03-03 02:18 pm E 5.1 6.0----29.88- 65.3 63.1----
2024-03-03 02:12 pm E 5.1 6.0----29.88- 65.5 63.1----
2024-03-03 02:06 pm E 6.0 6.0----29.88- 65.7 63.1----
2024-03-03 02:00 pmENE 2.9 4.1----29.88-0.06 65.1-----
2024-03-03 01:54 pm E 2.9 6.0----29.88- 65.1-----
2024-03-03 01:48 pmENE 5.1 6.0----29.88- 64.8 63.1----
2024-03-03 01:42 pmENE 5.1 5.1----29.88- 65.1 63.0----
2024-03-03 01:36 pm E 5.1 5.1----29.88- 65.5 63.0----
2024-03-03 01:30 pm E 5.1 5.1----29.89-- 63.0----
2024-03-03 01:24 pm E 5.1 5.1----29.89-- 63.0----
2024-03-03 01:18 pm E 5.1 6.0----29.89-------
2024-03-03 01:12 pm E 5.1 6.0----29.89-------
2024-03-03 01:06 pm E 5.1 6.0----29.90-------
2024-03-03 01:00 pm E 5.1 6.0----29.90-0.05- 62.8----
2024-03-03 12:54 pm E 6.0 7.0----29.90-- 62.8----
2024-03-03 12:48 pm--------- 65.8-----
2024-03-03 12:42 pm--------- 65.5-----
2024-03-03 12:36 pm--------- 65.5-----
2024-03-03 12:30 pm E 6.0 6.0----29.91- 66.0 62.8----
2024-03-03 12:24 pmENE 6.0 7.0----29.92- 66.2 62.6----
2024-03-03 12:18 pm E 7.0 7.0----29.92- 66.0 62.4----
2024-03-03 12:12 pmENE 5.1 5.1----29.93- 65.8 62.4----
2024-03-03 12:06 pmENE 4.1 5.1----29.93- 66.0 62.4----
2024-03-03 12:00 pmENE 4.1 5.1----29.93-0.01 66.2 62.4----
2024-03-03 11:54 am E 4.1 5.1----29.93- 66.0 62.4----
2024-03-03 11:48 amENE 5.1 5.1----29.93- 65.7 62.4----
2024-03-03 11:42 amENE 5.1 6.0----29.94- 65.7 62.4----
2024-03-03 11:36 amENE 5.1 6.0----29.94- 65.5 62.2----
2024-03-03 11:30 amENE 6.0 6.0----29.93- 65.5 62.2----
2024-03-03 11:24 am E 5.1 7.0----29.94- 65.7 62.2----
2024-03-03 11:18 am E 7.0 7.0----29.95-- 62.2----
2024-03-03 11:12 am E 6.0 7.0----29.95-- 62.2----
2024-03-03 11:06 am E 7.0 8.0----29.94-- 62.2----
2024-03-03 11:00 am E 8.0 8.0----29.94-- 62.2----
2024-03-03 10:54 am E 8.0 8.0----29.95-- 62.2----
2024-03-03 10:48 am E 6.0 6.0----29.95- 65.7 62.2----
2024-03-03 10:42 am E 5.1 5.1----29.96- 65.5 62.2----
2024-03-03 10:36 am E 5.1 6.0----29.96- 65.3 62.1----
2024-03-03 10:30 am E 6.0 6.0----29.95- 65.3 62.1----
2024-03-03 10:24 amENE 5.1 5.1----29.95- 64.9 62.1----
2024-03-03 10:18 amENE 4.1 4.1----29.95- 64.8 62.1----
2024-03-03 10:12 am E 4.1 6.0----29.95- 64.4 62.1----
2024-03-03 10:06 am E 6.0 7.0----29.95- 64.2 62.1----
2024-03-03 10:00 am E 7.0 8.0----29.95+0.02 64.0 62.1----
2024-03-03 09:54 am E 6.0 6.0----29.95- 63.9 62.1----
2024-03-03 09:48 am E 5.1 6.0----29.95- 63.9 62.1----
2024-03-03 09:42 am E 5.1 6.0----29.95- 63.7 62.1----
2024-03-03 09:36 am E 5.1 6.0----29.95- 63.7 62.1----
2024-03-03 09:30 am E 6.0 7.0----29.95- 63.5 62.1----
2024-03-03 09:24 am E 6.0 7.0----29.95- 63.5 62.1----
2024-03-03 09:18 am E 6.0 7.0----29.95- 63.1 62.1----
2024-03-03 09:12 am E 6.0 6.0----29.95- 63.1 62.1----
2024-03-03 09:06 am E 6.0 7.0----29.95- 63.0 62.1----
2024-03-03 09:00 am E 6.0 7.0----29.94+0.03 62.8 61.9----
2024-03-03 08:54 am E 5.1 6.0----29.95- 62.8 61.9----
2024-03-03 08:48 am E 5.1 5.1----29.94- 62.4 61.9----
2024-03-03 08:42 am E 5.1 5.1----29.94- 62.6 61.9----
2024-03-03 08:36 am E 5.1 6.0----29.94- 62.4 61.9----
2024-03-03 08:30 am E 5.1 5.1----29.94-------
2024-03-03 08:24 am E 5.1 5.1----29.93-------
2024-03-03 08:18 amENE 5.1 5.1----29.93-- 61.9----
2024-03-03 08:12 amENE 5.1 5.1----29.93-- 61.9----
2024-03-03 08:06 amENE 5.1 5.1----29.93-- 61.9----
2024-03-03 08:00 am NE 5.1 5.1------ 61.9 61.9----
2024-03-03 07:54 amENE 5.1 6.0------ 62.1 61.9----